Retour au catalogue

STARLINK-3565

ActifCommunicationsVLEO
NORAD 51886·PAYLOAD·🇺🇸 United States

Lancé Mar 3, 2022 depuis Cape Canaveral Space Force Station

Loading…

Prochains Passages (prochaines 24 heures)

TLE

FraisSource: CelesTrak SupGP

Époque: Sep 15, 2026, 01:26 UTC

1 51886C 22022AL  26258.06020833 -.00025376  00000+0 -14829-2 0  2589
2 51886  53.1761 227.6343 0001896  61.7906 285.7444 15.11406952    12

Suivez STARLINK-3565 en temps réel avec AllMySat

Download on the App Store